Location: Barcelona
(41.3830°N, 2.1830°E)
Time: 12:16:01
(UTC+02:00)

ISS - Pass Details

Date: 25 May 2020
Orbit: 417 x 419 km, 51.6° (Epoch: 31 May)

Event Time Altitude Azimuth Distance (km) Brightness Sun altitude
Rises 00:43:23 0° 309° (NW) 2,368 0.9 -25.8°
Reaches altitude 10° 00:45:36 10° 318° (NW) 1,503 -0.1 -26.0°
Enters shadow 00:47:40 28° 346° (NNW) 824 -1.7 -26.1°
